Hourly Weather Rvy

Today, 20 April, Tuesday

Time Temperature Precipitation Wind Pressure Humidity
00:00 +4°C° 0 mm 2 mps 759 mmHg 75%
01:00 +4°C° 0 mm 2 mps 759 mmHg 76%
02:00 +3°C° 0 mm 2 mps 759 mmHg 78%
03:00 +3°C° 0 mm 2 mps 758 mmHg 80%
04:00 +2°C° 0 mm 2 mps 758 mmHg 82%
05:00 +2°C° 0 mm 2 mps 758 mmHg 84%
06:00 +3°C° 0 mm 2 mps 758 mmHg 79%
07:00 +4°C° 0 mm 3 mps 758 mmHg 74%
08:00 +5°C° 0 mm 3 mps 757 mmHg 69%
09:00 +6°C° 0 mm 4 mps 757 mmHg 65%
10:00 +6°C° 0 mm 4 mps 757 mmHg 61%
11:00 +6°C° 0 mm 4 mps 757 mmHg 58%
12:00 +7°C° 0 mm 4 mps 756 mmHg 57%
13:00 +8°C° 0 mm 3 mps 756 mmHg 55%
14:00 +8°C° 0 mm 3 mps 756 mmHg 54%
15:00 +8°C° 0 mm 3 mps 755 mmHg 57%
16:00 +8°C° 0 mm 3 mps 755 mmHg 59%
17:00 +8°C° 0 mm 3 mps 755 mmHg 61%
18:00 +7°C° 0 mm 2 mps 754 mmHg 66%
19:00 +7°C° 0 mm 2 mps 754 mmHg 70%
20:00 +7°C° 0 mm 1 mps 754 mmHg 75%
21:00 +7°C° 0 mm 1 mps 753 mmHg 76%
22:00 +6°C° 0 mm 2 mps 753 mmHg 77%
23:00 +5°C° 0 mm 2 mps 752 mmHg 79%

Tomorrow, 21 April, Wednesday

Time Temperature Precipitation Wind Pressure Humidity
00:00 +5°C° 0 mm 2 mps 752 mmHg 81%
01:00 +5°C° 0 mm 2 mps 751 mmHg 82%
02:00 +4°C° 0 mm 2 mps 751 mmHg 84%
03:00 +4°C° 0 mm 2 mps 750 mmHg 85%
04:00 +4°C° 0 mm 2 mps 750 mmHg 87%
05:00 +5°C° 0 mm 1 mps 749 mmHg 88%
06:00 +4°C° 0 mm 2 mps 748 mmHg 85%
07:00 +4°C° 0 mm 2 mps 748 mmHg 83%
08:00 +4°C° 0 mm 3 mps 747 mmHg 81%
09:00 +4°C° 0 mm 3 mps 747 mmHg 81%
10:00 +4°C° 0 mm 3 mps 746 mmHg 80%
11:00 +5°C° 0 mm 3 mps 746 mmHg 80%
12:00 +5°C° 0.1 mm 3 mps 746 mmHg 80%
13:00 +6°C° 0.1 mm 2 mps 746 mmHg 79%
14:00 +6°C° 0.1 mm 2 mps 745 mmHg 79%
15:00 +6°C° 0 mm 2 mps 745 mmHg 78%
16:00 +7°C° 0 mm 1 mps 745 mmHg 77%
17:00 +7°C° 0 mm 1 mps 745 mmHg 77%
18:00 +7°C° 0 mm 1 mps 745 mmHg 81%
19:00 +6°C° 0 mm 1 mps 745 mmHg 85%
20:00 +5°C° 0 mm 1 mps 746 mmHg 89%
21:00 +3°C° 0 mm 2 mps 746 mmHg 89%
22:00 +3°C° 0 mm 2 mps 746 mmHg 90%
23:00 +3°C° 0 mm 2 mps 746 mmHg 90%

Day after tomorrow, 22 April, Thursday

Time Temperature Precipitation Wind Pressure Humidity
00:00 +3°C° 0 mm 2 mps 746 mmHg 90%
01:00 +3°C° 0 mm 2 mps 746 mmHg 90%
02:00 +3°C° 0 mm 2 mps 746 mmHg 89%
03:00 +3°C° 0 mm 2 mps 746 mmHg 91%
04:00 +3°C° 0 mm 2 mps 746 mmHg 92%
05:00 +2°C° 0 mm 2 mps 746 mmHg 94%
06:00 +4°C° 0.1 mm 2 mps 747 mmHg 88%
07:00 +6°C° 0.1 mm 2 mps 747 mmHg 81%
08:00 +8°C° 0.1 mm 3 mps 747 mmHg 75%
09:00 +10°C° 0 mm 3 mps 747 mmHg 68%
10:00 +11°C° 0 mm 3 mps 748 mmHg 60%
11:00 +13°C° 0 mm 3 mps 748 mmHg 53%
12:00 +13°C° 0.1 mm 3 mps 748 mmHg 50%
13:00 +14°C° 0.1 mm 3 mps 748 mmHg 47%
14:00 +14°C° 0.1 mm 3 mps 748 mmHg 44%
15:00 +14°C° 0 mm 3 mps 748 mmHg 45%
16:00 +14°C° 0 mm 3 mps 748 mmHg 46%
17:00 +14°C° 0 mm 3 mps 748 mmHg 47%
18:00 +13°C° 0 mm 2 mps 748 mmHg 57%
19:00 +10°C° 0 mm 2 mps 748 mmHg 67%
20:00 +10°C° 0 mm 1 mps 748 mmHg 77%
21:00 +9°C° 0.1 mm 1 mps 748 mmHg 81%
22:00 +8°C° 0.1 mm 2 mps 748 mmHg 85%
23:00 +8°C° 0.1 mm 2 mps 748 mmHg 89%

23 April, Friday

Time Temperature Precipitation Wind Pressure Humidity
00:00 +8°C° 0.1 mm 1 mps 748 mmHg 89%
01:00 +8°C° 0.1 mm 1 mps 748 mmHg 89%
02:00 +8°C° 0.1 mm 1 mps 748 mmHg 89%
03:00 +7°C° 0.8 mm 1 mps 748 mmHg 89%
04:00 +6°C° 0.8 mm 1 mps 748 mmHg 89%
05:00 +6°C° 0.8 mm 1 mps 747 mmHg 89%
06:00 +5°C° 1.2 mm 2 mps 748 mmHg 88%
07:00 +5°C° 1.2 mm 2 mps 748 mmHg 87%
08:00 +5°C° 1.2 mm 2 mps 748 mmHg 87%
09:00 +5°C° 0.1 mm 3 mps 748 mmHg 83%
10:00 +7°C° 0.1 mm 3 mps 748 mmHg 78%
11:00 +6°C° 0.1 mm 4 mps 749 mmHg 74%
12:00 +7°C° 0.1 mm 4 mps 749 mmHg 66%
13:00 +8°C° 0.1 mm 4 mps 748 mmHg 59%
14:00 +10°C° 0.1 mm 4 mps 748 mmHg 51%
15:00 +8°C° 0.1 mm 4 mps 748 mmHg 54%
16:00 +8°C° 0.1 mm 4 mps 748 mmHg 57%
17:00 +8°C° 0.1 mm 3 mps 748 mmHg 59%
18:00 +7°C° 0 mm 3 mps 748 mmHg 64%
19:00 +6°C° 0 mm 2 mps 748 mmHg 69%
20:00 +5°C° 0 mm 2 mps 748 mmHg 74%
21:00 +4°C° 0 mm 2 mps 748 mmHg 77%
22:00 +4°C° 0 mm 2 mps 748 mmHg 80%
23:00 +3°C° 0 mm 2 mps 748 mmHg 83%

24 April, Saturday

Time Temperature Precipitation Wind Pressure Humidity
00:00 +2°C° 0 mm 2 mps 748 mmHg 86%
01:00 +2°C° 0 mm 2 mps 748 mmHg 89%
02:00 +1°C° 0 mm 2 mps 747 mmHg 92%
03:00 +1°C° 0 mm 2 mps 747 mmHg 93%
04:00 -1°C° 0 mm 2 mps 747 mmHg 94%
05:00 +1°C° 0 mm 1 mps 747 mmHg 96%
06:00 +1°C° 0 mm 2 mps 747 mmHg 93%
07:00 +2°C° 0 mm 2 mps 747 mmHg 90%
08:00 +3°C° 0 mm 2 mps 747 mmHg 87%
09:00 +2°C° 0.1 mm 3 mps 747 mmHg 84%
10:00 +3°C° 0.1 mm 3 mps 748 mmHg 81%
11:00 +3°C° 0.1 mm 3 mps 748 mmHg 77%
12:00 +3°C° 0.2 mm 3 mps 748 mmHg 77%
13:00 +4°C° 0.2 mm 3 mps 748 mmHg 77%
14:00 +4°C° 0.2 mm 3 mps 748 mmHg 76%
15:00 +3°C° 0.2 mm 3 mps 748 mmHg 80%
16:00 +4°C° 0.2 mm 2 mps 748 mmHg 84%
17:00 +3°C° 0.2 mm 2 mps 748 mmHg 88%
18:00 +3°C° 0 mm 2 mps 748 mmHg 89%
19:00 +2°C° 0 mm 2 mps 748 mmHg 90%
20:00 +3°C° 0 mm 1 mps 748 mmHg 91%
21:00 +1°C° 0 mm 2 mps 748 mmHg 91%
22:00 -1°C° 0 mm 2 mps 748 mmHg 91%
23:00 -1°C° 0 mm 2 mps 748 mmHg 91%

25 April, Sunday

Time Temperature Precipitation Wind Pressure Humidity
00:00 -2°C° 0 mm 2 mps 748 mmHg 92%
01:00 -2°C° 0 mm 2 mps 748 mmHg 92%
02:00 -2°C° 0 mm 3 mps 748 mmHg 93%
03:00 -4°C° 0 mm 3 mps 748 mmHg 94%
04:00 -4°C° 0 mm 3 mps 748 mmHg 95%
05:00 -3°C° 0 mm 2 mps 748 mmHg 96%
06:00 -2°C° 0 mm 3 mps 747 mmHg 89%
07:00 -1°C° 0 mm 3 mps 747 mmHg 82%
08:00 +1°C° 0 mm 3 mps 747 mmHg 75%
09:00 +1°C° 0 mm 3 mps 747 mmHg 70%
10:00 +2°C° 0 mm 3 mps 747 mmHg 64%
11:00 +4°C° 0 mm 2 mps 747 mmHg 58%
12:00 +4°C° 0 mm 2 mps 747 mmHg 54%
13:00 +4°C° 0 mm 3 mps 747 mmHg 49%
14:00 +5°C° 0 mm 3 mps 746 mmHg 44%
15:00 +5°C° 0.1 mm 3 mps 746 mmHg 47%
16:00 +5°C° 0.1 mm 3 mps 746 mmHg 50%
17:00 +5°C° 0.1 mm 4 mps 746 mmHg 54%
18:00 +4°C° 0.1 mm 4 mps 746 mmHg 62%
19:00 +3°C° 0.1 mm 4 mps 746 mmHg 70%
20:00 +1°C° 0.1 mm 4 mps 746 mmHg 79%
21:00 +1°C° 0.1 mm 4 mps 746 mmHg 82%
22:00 0°C° 0.1 mm 4 mps 746 mmHg 85%
23:00 0°C° 0.1 mm 5 mps 745 mmHg 88%
Show more